USGS - science for a changing world

Kansas Water Science Center

Jump to content

Jump back to navigation

Current Streamflow Conditions

Welcome to the U.S. Geological Survey (USGS) Web page for the water resources of Kansas. Here you'll find information on Kansas's rivers and streams. You'll also find information about groundwater, water quality, and many other topics. The USGS operates the most extensive satellite network of stream-gaging stations in the state, many of which form the backbone of flood-warning systems.

The Kansas Water Science Center provides current ("real-time") stream stage in Kansas and streamflow, water-quality, and groundwater levels for over 200 sites.
The USGS provides National ("real-time") stream stage and streamflow, water-quality, and groundwater levels for over 7000 sites.

Of Current Interest

News Release: Decreasing Streamflows in Southwest Kansas Likely Caused by Groundwater Withdrawals

Water Chief Determines Junior Water Rights Hindering Wildlife Refuge

News Release: U.S. Rivers Show Few Signs of Improvement from Historic Nitrate Increases

News Release: Wichita's Primary Water Supply Source Recovering Due to City's Efforts

USGS WaterAlert Service Turn Around Don't Drown

Now you can receive instant, customized updates about water conditions by subscribing to WaterAlert, a new service from the U.S. Geological Survey. WaterAlert allows you to receive daily or hourly updates about current conditions in rivers, lakes and groundwater when they match conditions of concern to you.

Kansas Earthquakes - Last 30 days

  1. 2.1 6km S of Anthony, Kansas 2016-02-04 18:28:28 CST
  2. 2.7 7km SSW of Anthony, Kansas 2016-02-03 21:47:25 CST
  3. 3.9 11km SSW of Caldwell, Kansas 2016-01-24 04:01:40 CST
  4. 1.95 7km ENE of Caldwell, Kansas 2016-01-22 15:40:31 CST
  5. 1.83 10km S of Anthony, Kansas 2016-01-21 18:57:35 CST
  6. 1.87 10km S of Anthony, Kansas 2016-01-21 18:53:47 CST
  7. 2.35 15km ESE of Harper, Kansas 2016-01-21 09:51:03 CST
  8. 1.78 17km WNW of Caldwell, Kansas 2016-01-20 04:08:26 CST
  9. 2.04 12km ESE of Caldwell, Kansas 2016-01-20 03:24:51 CST
  10. 2.8 17km NNW of Medford, Oklahoma 2016-01-15 18:09:50 CST
  11. 2.6 12km NNW of Medford, Oklahoma 2016-01-14 21:29:24 CST
  12. 3.2 15km NNW of Medford, Oklahoma 2016-01-14 20:06:30 CST
  13. 4 18km NNW of Medford, Oklahoma 2016-01-14 17:15:32 CST
  14. 2.34 10km NE of Anthony, Kansas 2016-01-14 09:17:52 CST
  15. 1.99 17km WNW of Caldwell, Kansas 2016-01-14 08:28:31 CST
  16. 3 18km NNW of Medford, Oklahoma 2016-01-13 12:22:31 CST
  17. 3.2 14km SW of Caldwell, Kansas 2016-01-13 09:44:07 CST
  18. 2.03 10km NE of Anthony, Kansas 2016-01-13 03:37:21 CST
  19. 1.99 17km WNW of Caldwell, Kansas 2016-01-12 18:12:51 CST
  20. 1.97 11km ESE of Harper, Kansas 2016-01-10 23:08:25 CST
  21. 1.81 2km SSW of Anthony, Kansas 2016-01-10 05:47:38 CST

Highlighted Publications

The Kansas Water Science Center produces publications about water resources.   Search icon Search our publications

Streamflow characteristics and trends at selected streamgages in southwest and south-central Kansas Agencies collaborate, develop a cyanobacteria assessment network Public-supply water use in Kansas, 2013 Groundwater-level and storage-volume changes in the <i>Equus</i> Beds aquifer near Wichita, Kansas, predevelopment through January 2015 Water quality of the Little Arkansas River and <i>Equus</i> Beds Aquifer before and concurrent with large-scale artificial recharge, south-central Kansas, 1995-2012 Water quality of the Little Arkansas River and <i>Equus</i> Beds Aquifer before and concurrent with large-scale artificial recharge, south-central Kansas, 1995-2012 U.S. Geological Survey quality-assurance plan for surface-water activities in Kansas, 2015 Summary of hydrologic conditions in Kansas, water year 2014 Water-level changes and change in water in storage in the High Plains aquifer, predevelopment to 2013 and 2011-13
06912500: Flow=411cfs,Stage=4.73ft,2016-02-08 02:45,>90,HUNDRED AND TEN MILE C NR QUENEMO, KS 06818000: Flow=45200cfs,Stage=8.58ft,Floodstage=17ft,2016-02-08 02:30,>90,Missouri River at St. Joseph, MO 06814000: Flow=129cfs,Stage=2.32ft,Floodstage=21ft,2016-02-08 02:45,>90,TURKEY C NR SENECA, KS 06813500: Flow=40000cfs,Stage=8.70ft,Floodstage=17ft,2016-02-08 02:30,>90,Missouri River at Rulo, NE 07157500: Flow=5.6cfs,Stage=2.59ft,Floodstage=6.5ft,2016-02-08 02:30,<10,CROOKED C NR ENGLEWOOD, KS 07144910: Flow=7.1cfs,Stage=2.63ft,Floodstage=9ft,2016-02-08 03:00,<10,SF NINNESCAH R NR PRATT, KS 07139000: Flow=0.00cfs,Stage=5.23ft,Floodstage=10ft,2016-02-08 02:30,<10,ARKANSAS R AT GARDEN CITY, KS 06867000: Flow=2.5cfs,Stage=5.01ft,Floodstage=18ft,2016-02-08 02:30,<10,SALINE R NR RUSSELL, KS 06864000: Flow=5.3cfs,Stage=3.35ft,2016-02-08 02:30,<10,SMOKY HILL R NR RUSSELL, KS 06862700: Flow=0.46cfs,Stage=3.44ft,2016-02-08 02:30,<10,SMOKY HILL R NR SCHOENCHEN, KS 06827500: Flow=0.00cfs,Stage=-0.87ft,Floodstage=9ft,2016-02-08 01:30,<10,South Fork Republican River near Benkelman, Nebr. 06821500: Flow=0.00cfs,Stage=3.74ft,Floodstage=12ft,2016-02-08 01:30,<10,Arikaree River at Haigler, Nebr. 07156900: Flow=22cfs,Stage=2.42ft,Floodstage=5ft,2016-02-08 02:00,<10,Cimarron River near Forgan, OK 07188000: Flow=2240cfs,Stage=7.37ft,Floodstage=20ft,2016-02-08 02:00,76-90,Spring River near Quapaw, OK 07144200: Flow=120cfs,Stage=1.55ft,2016-02-08 02:00,76-90,L ARKANSAS R AT VALLEY CENTER, KS 06913500: Flow=668cfs,Stage=6.47ft,Floodstage=31ft,2016-02-08 02:30,76-90,MARAIS DES CYGNES R NR OTTAWA, KS 06913000: Flow=574cfs,Stage=3.51ft,Floodstage=20ft,2016-02-08 02:30,76-90,MARAIS DES CYGNES R NR POMONA, KS 06911900: Flow=33cfs,Stage=8.12ft,2016-02-08 02:00,76-90,DRAGOON C NR BURLINGAME, KS 06910800: Flow=40cfs,Stage=2.61ft,Floodstage=19ft,2016-02-08 02:45,76-90,MARAIS DES CYGNES R NR READING, KS 06893000: Flow=51400cfs,Stage=11.54ft,Floodstage=32ft,2016-02-08 02:30,76-90,Missouri River at Kansas City, MO 06892350: Flow=4230cfs,Stage=6.37ft,Floodstage=26ft,2016-02-08 02:45,76-90,KANSAS R AT DESOTO, KS 06891500: Flow=295cfs,Stage=6.45ft,Floodstage=23ft,2016-02-08 02:45,76-90,WAKARUSA R NR LAWRENCE, KS 06891000: Flow=4260cfs,Stage=3.64ft,Floodstage=17ft,2016-02-08 02:30,76-90,KANSAS R AT LECOMPTON, KS 06890100: Flow=113cfs,Stage=3.05ft,Floodstage=27ft,2016-02-08 02:45,76-90,DELAWARE R NR MUSCOTAH, KS 06888500: Flow=144cfs,Stage=3.29ft,Floodstage=21ft,2016-02-08 02:45,76-90,MILL C NR PAXICO, KS 06885500: Flow=80cfs,Stage=3.82ft,Floodstage=19ft,2016-02-08 02:30,76-90,BLACK VERMILLION R NR FRANKFORT, KS 06882510: Flow=692cfs,Stage=13.08ft,Floodstage=35ft,2016-02-08 02:30,76-90,BIG BLUE R AT MARYSVILLE, KS 06879650: Flow=1.4cfs,Stage=3.91ft,2016-02-08 02:45,76-90,KINGS C NR MANHATTAN, KS 06878000: Flow=46cfs,Stage=4.85ft,Floodstage=19ft,2016-02-08 02:45,76-90,CHAPMAN C NR CHAPMAN, KS 06876000: Flow=140cfs,Stage=3.68ft,2016-02-08 02:45,76-90,SOLOMON R AT BELOIT, KS 07179795: Flow=1.5cfs,Stage=4.62ft,2016-02-08 02:30,10-24,N COTTONWOOD R BL MARION LK, KS 07179500: Flow=1.6cfs,Stage=7.84ft,2016-02-08 03:00,10-24,NEOSHO R AT COUNCIL GROVE, KS 07144780: Flow=68cfs,Stage=6.36ft,2016-02-08 02:00,10-24,NF NINNESCAH R AB CHENEY RE, KS 07142575: Flow=11cfs,Stage=11.87ft,Floodstage=17ft,2016-02-08 03:00,10-24,RATTLESNAKE C NR ZENITH, KS 07142300: Flow=1.0cfs,Stage=3.17ft,Floodstage=9ft,2016-02-08 02:00,10-24,RATTLESNAKE C NR MACKSVILLE, KS 06915000: Flow=2.9cfs,Stage=1.88ft,2016-02-08 02:30,10-24,BIG BULL C NR HILLSDALE, KS 06874000: Flow=8.0cfs,Stage=4.30ft,Floodstage=14ft,2016-02-08 02:30,10-24,SF SOLOMON R AT OSBORNE, KS 06873460: Flow=0.41cfs,Stage=4.20ft,Floodstage=12ft,2016-02-08 02:30,10-24,SF SOLOMON R AT WOODSTON, KS 06869500: Flow=17cfs,Stage=4.69ft,Floodstage=25ft,2016-02-08 02:30,10-24,SALINE R AT TESCOTT, KS 06865500: Flow=23cfs,Stage=2.91ft,2016-02-08 02:30,10-24,SMOKY HILL R NR LANGLEY, KS 06864500: Flow=19cfs,Stage=1.15ft,Floodstage=20ft,2016-02-08 02:30,10-24,SMOKY HILL R AT ELLSWORTH, KS 07186000: Flow=381cfs,Stage=2.45ft,Floodstage=19ft,2016-02-08 02:30,25-75,Spring River near Waco, MO 07185000: Flow=991cfs,Stage=3.52ft,Floodstage=15ft,2016-02-08 02:30,25-75,Neosho River near Commerce, OK 07184000: Flow=21cfs,Stage=1.45ft,Floodstage=12ft,2016-02-08 02:45,25-75,LIGHTNING C NR MCCUNE, KS 07183500: Flow=771cfs,Stage=8.09ft,Floodstage=21ft,2016-02-08 02:00,25-75,NEOSHO R NR PARSONS, KS 07183000: Flow=581cfs,Stage=7.38ft,Floodstage=15ft,2016-02-08 02:00,25-75,NEOSHO R NR IOLA, KS 07182510: Flow=419cfs,Stage=6.92ft,Floodstage=27ft,2016-02-08 02:15,25-75,NEOSHO R AT BURLINGTON, KS 07182250: Flow=242cfs,Stage=3.52ft,Floodstage=32ft,2016-02-08 03:00,25-75,COTTONWOOD R NR PLYMOUTH, KS 07180500: Flow=15cfs,Stage=4.35ft,2016-02-08 02:15,25-75,CEDAR C NR CEDAR POINT, KS 07180400: Flow=96cfs,Stage=3.31ft,Floodstage=22ft,2016-02-08 03:00,25-75,COTTONWOOD R NR FLORENCE, KS 07179730: Flow=85cfs,Stage=3.37ft,Floodstage=26ft,2016-02-08 02:15,25-75,NEOSHO R NR AMERICUS, KS 07172000: Flow=82cfs,Stage=1.88ft,2016-02-08 03:00,25-75,CANEY R NR ELGIN, KS 07170500: Flow=486cfs,Stage=3.99ft,Floodstage=30ft,2016-02-08 03:00,25-75,VERDIGRIS R AT INDEPENDENCE, KS 07169800: Flow=39cfs,Stage=3.04ft,2016-02-08 02:00,25-75,ELK R AT ELK FALLS, KS 07169500: Flow=139cfs,Stage=3.85ft,Floodstage=17ft,2016-02-08 02:00,25-75,FALL R AT FREDONIA, KS 07167500: Flow=18cfs,Stage=2.50ft,2016-02-08 02:15,25-75,OTTER C AT CLIMAX, KS 07166500: Flow=206cfs,Stage=3.85ft,Floodstage=19ft,2016-02-08 02:45,25-75,VERDIGRIS R NR ALTOONA, KS 07151500: Flow=149cfs,Stage=2.39ft,Floodstage=10ft,2016-02-08 03:00,25-75,CHIKASKIA R NR CORBIN, KS 07149000: Flow=79cfs,Stage=0.85ft,Floodstage=10ft,2016-02-08 02:30,25-75,MEDICINE LODGE R NR KIOWA, KS 07147800: Flow=237cfs,Stage=1.84ft,Floodstage=18ft,2016-02-08 03:00,25-75,WALNUT R AT WINFIELD, KS 07147070: Flow=44cfs,Stage=1.89ft,Floodstage=22ft,2016-02-08 02:30,25-75,WHITEWATER R AT TOWANDA, KS 07146500: Flow=845cfs,Stage=3.98ft,Floodstage=11ft,2016-02-08 03:00,25-75,ARKANSAS R AT ARKANSAS CITY, KS 07145700: Flow=14cfs,Stage=4.11ft,Floodstage=19ft,2016-02-08 03:00,25-75,SLATE C AT WELLINGTON, KS 07145500: Flow=268cfs,Stage=3.50ft,Floodstage=17ft,2016-02-08 03:00,25-75,NINNESCAH R NR PECK, KS 07145200: Flow=147cfs,Stage=3.82ft,Floodstage=8ft,2016-02-08 03:00,25-75,SF NINNESCAH R NR MURDOCK, KS 07144550: Flow=427cfs,Stage=1.55ft,Floodstage=12ft,2016-02-08 03:00,25-75,ARKANSAS R AT DERBY, KS 07144300: Flow=317cfs,Stage=3.30ft,2016-02-08 02:45,25-75,ARKANSAS R AT WICHITA, KS 07143665: Flow=31cfs,Stage=0.66ft,Floodstage=22ft,2016-02-08 02:15,25-75,L ARKANSAS R AT ALTA MILLS, KS 07143330: Flow=147cfs,Stage=2.13ft,Floodstage=10ft,2016-02-08 02:30,25-75,ARKANSAS R NR HUTCHINSON, KS 07143300: Flow=9.5cfs,Stage=4.50ft,Floodstage=18ft,2016-02-08 02:30,25-75,COW C NR LYONS, KS 07141300: Flow=8.6cfs,Stage=1.29ft,Floodstage=12ft,2016-02-08 02:30,25-75,ARKANSAS R AT GREAT BEND, KS 07138000: Flow=104cfs,Stage=4.22ft,Floodstage=10ft,2016-02-08 02:15,25-75,ARKANSAS R AT SYRACUSE, KS 07137500: Flow=114cfs,Stage=2.77ft,Floodstage=8ft,2016-02-08 02:15,25-75,ARKANSAS R NR COOLIDGE, KS 06917500: Flow=87cfs,Stage=8.65ft,Floodstage=38ft,2016-02-08 02:30,25-75,MARMATON R NR FORT SCOTT, KS 06917000: Flow=96cfs,Stage=4.07ft,Floodstage=22ft,2016-02-08 02:15,25-75,L OSAGE R AT FULTON, KS 06916600: Flow=1300cfs,Stage=6.90ft,Floodstage=27ft,2016-02-08 02:45,25-75,MARAIS DES CYGNES R NR KS-MO ST LINE, KS 06915800: Flow=1100cfs,Stage=6.59ft,Floodstage=25ft,2016-02-08 02:15,25-75,MARAIS DES CYGNES R AT LA CYGNE, KS 06911000: Flow=19cfs,Stage=2.11ft,2016-02-08 02:45,25-75,MARAIS DES CYGNES R AT MELVERN, KS 06893500: Flow=83cfs,Stage=4.65ft,Floodstage=34ft,2016-02-08 02:45,25-75,Blue River at Kansas City, MO 06893300: Flow=20cfs,Stage=5.76ft,Floodstage=14ft,2016-02-08 02:15,25-75,INDIAN C AT OVERLAND PARK, KS 06893080: Flow=17cfs,Stage=4.09ft,Floodstage=16ft,2016-02-08 02:45,25-75,BLUE R NR STANLEY, KS 06892000: Flow=110cfs,Stage=3.27ft,Floodstage=23ft,2016-02-08 02:30,25-75,STRANGER C NR TONGANOXIE, KS 06890900: Flow=334cfs,Stage=28.87ft,2016-02-08 02:45,25-75,DELAWARE R AT PERRY, KS 06889500: Flow=48cfs,Stage=0.61ft,Floodstage=29ft,2016-02-08 03:00,25-75,SOLDIER C NR TOPEKA, KS 06889200: Flow=28cfs,Stage=6.98ft,Floodstage=26ft,2016-02-08 02:30,25-75,SOLDIER C NR DELIA, KS 06889000: Flow=3210cfs,Stage=6.61ft,Floodstage=26ft,2016-02-08 02:30,25-75,KANSAS R AT TOPEKA, KS 06888350: Flow=3290cfs,Stage=6.87ft,Floodstage=20ft,2016-02-08 02:30,25-75,KANSAS R NR BELVUE, KS 06888000: Flow=36cfs,Stage=4.37ft,2016-02-08 02:45,25-75,VERMILLION C NR WAMEGO, KS 06887000: Flow=1670cfs,Stage=3.35ft,Floodstage=19ft,2016-02-08 02:00,25-75,BIG BLUE R NR MANHATTAN, KS 06884400: Flow=237cfs,Stage=3.98ft,Floodstage=21ft,2016-02-08 02:30,25-75,L BLUE R NR BARNES, KS 06884200: Flow=29cfs,Stage=1.99ft,Floodstage=18ft,2016-02-08 02:45,25-75,MILL C AT WASHINGTON, KS 06879100: Flow=956cfs,Stage=6.02ft,Floodstage=21ft,2016-02-08 02:30,25-75,KANSAS R AT FORT RILEY, KS 06877600: Flow=433cfs,Stage=6.82ft,Floodstage=26ft,2016-02-08 02:45,25-75,SMOKY HILL R AT ENTERPRISE, KS 06876900: Flow=224cfs,Stage=4.38ft,Floodstage=24ft,2016-02-08 02:30,25-75,SOLOMON R AT NILES, KS 06876700: Flow=8.8cfs,Stage=4.29ft,Floodstage=18ft,2016-02-08 02:45,25-75,SALT C NR ADA, KS 06875900: Flow=139cfs,Stage=8.51ft,Floodstage=21ft,2016-02-08 02:30,25-75,SOLOMON R NR GLEN ELDER, KS 06872500: Flow=23cfs,Stage=3.97ft,Floodstage=15ft,2016-02-08 02:30,25-75,NF SOLOMON R AT PORTIS, KS 06866900: Flow=0.15cfs,Stage=2.19ft,Floodstage=13ft,2016-02-08 02:45,25-75,SALINE R NR WAKEENEY, KS 06866500: Flow=46cfs,Stage=4.07ft,Floodstage=20ft,2016-02-08 02:45,25-75,SMOKY HILL R NR MENTOR, KS 06866000: Flow=38cfs,Stage=6.32ft,2016-02-08 02:30,25-75,SMOKY HILL R AT LINDSBORG, KS 06860000: Flow=0.61cfs,Stage=4.20ft,Floodstage=9ft,2016-02-08 02:30,25-75,SMOKY HILL R AT ELKADER, KS 06857100: Flow=199cfs,Stage=5.20ft,2016-02-08 02:45,25-75,REPUBLICAN R AT JUNCTION CITY, KS 06856600: Flow=299cfs,Stage=7.13ft,Floodstage=15ft,2016-02-08 02:30,25-75,REPUBLICAN R AT CLAY CENTER, KS 06856000: Flow=165cfs,Stage=4.91ft,Floodstage=15ft,2016-02-08 02:30,25-75,REPUBLICAN R AT CONCORDIA, KS 06853800: Flow=7.8cfs,Stage=1.72ft,Floodstage=16ft,2016-02-08 02:45,25-75,WHITE ROCK C NR BURR OAK, KS 06853500: Flow=139cfs,Stage=2.14ft,Floodstage=11ft,2016-02-08 02:30,25-75,REPUBLICAN R NR HARDY, NE 06848500: Flow=0.29cfs,Stage=1.42ft,Floodstage=21ft,2016-02-08 02:30,25-75,PRAIRIE DOG C NR WOODRUFF, KS 385608094380300: Flow=17cfs,2013-07-10 23:45,Not ranked,INDIAN C AT INDIAN C PKWY, OVERLAND PARK, KS 385520094420000: Flow=15cfs,2013-07-17 23:45,Not ranked,INDIAN C AT COLLEGE BLVD, JOHNSON CO, KS 385446094430700: Flow=0.44cfs,2013-07-17 23:45,Not ranked,INDIAN C AT 119TH ST, OVERLAND PARK, KS 375350097262800: Stage=5.42ft,2016-02-08 02:00,Not ranked,L ARKANSAS R UPSTREAM OF ASR FAC NR SEDGWICK, KS 07187600: Flow=1290cfs,Stage=3.77ft,Floodstage=14ft,2016-02-08 02:30,Not ranked,SPRING R NR BAXTER SPRINGS, KS 07186055: Flow=39cfs,Stage=5.69ft,2016-02-08 02:45,Not ranked,COW C NR SCAMMON, KS 07185090: Flow=2.7cfs,Stage=8.43ft,2016-02-08 02:15,Not ranked,Tar Creek near Commerce, OK 07184500: Flow=45cfs,Stage=6.19ft,2016-02-08 02:00,Not ranked,LABETTE C NR OSWEGO, KS 07183300: Stage=12.11ft,2016-02-08 02:15,Not ranked,NEOSHO R NR ERIE, KS 07182390: Flow=470cfs,Stage=1.81ft,Floodstage=22ft,2016-02-08 02:30,Not ranked,NEOSHO R AT NEOSHO RAPIDS, KS 07182260: Flow=279cfs,Stage=2.39ft,2016-02-08 02:30,Not ranked,COTTONWOOD R AT EMPORIA, KS 07182200: Flow=30cfs,Stage=6.86ft,2016-02-08 02:30,Not ranked,SF COTTONWOOD R NR BAZAAR, KS 07180200: Stage=5.24ft,2016-02-08 02:30,Not ranked,COTTONWOOD R AT MARION, KS 07179750: Flow=90cfs,Stage=3.91ft,2016-02-08 02:30,Not ranked,NEOSHO R AT BURLINGAME RD NR EMPORIA, KS 07179710: Stage=11.45ft,2016-02-08 02:00,Not ranked,NEOSHO R NR DUNLAP, KS 07179700: Flow=26cfs,Stage=9.31ft,2016-02-08 02:15,Not ranked,ROCK C NR DUNLAP, KS 07179300: Flow=5.1cfs,Stage=7.72ft,2016-02-08 02:45,Not ranked,NEOSHO R NR PARKERVILLE, KS 07170990: Flow=635cfs,Stage=4.53ft,2016-02-08 02:45,Not ranked,VERDIGRIS R AT COFFEYVILLE, KS 07170700: Stage=3.10ft,2016-02-08 02:00,Not ranked,BIG HILL C NR CHERRYVALE, KS 07165750: Flow=63cfs,Stage=7.41ft,2016-02-08 03:00,Not ranked,VERDIGRIS R NR VIRGIL, KS 07157940: Flow=17cfs,Stage=5.93ft,2016-02-08 02:00,Not ranked,BLUFF C NR BUTTERMILK, KS 07157740: Flow=38cfs,Stage=8.13ft,2016-02-08 02:30,Not ranked,CIMARRON R NR BUTTERMILK, KS 07148111: Flow=78cfs,Stage=4.41ft,2016-02-08 02:30,Not ranked,GROUSE C NR SILVERDALE, KS 07147900: Stage=3.60ft,Floodstage=18ft,2016-02-08 02:15,Not ranked,WALNUT R AT ARKANSAS CITY, KS 07146800: Flow=9.0cfs,Stage=5.78ft,Floodstage=21ft,2016-02-08 02:00,Not ranked,WB WALNUT R NR EL DORADO, KS 07145600: Flow=880cfs,Stage=8.24ft,2016-02-08 02:45,Not ranked,ARKANSAS R ON HWY 160 AT OXFORD, KS 07144795: Flow=0.43cfs,Stage=1.23ft,2015-11-12 10:00,Not ranked,NF NINNESCAH R AT CHENEY DAM, KS 07144790: Stage=1422.27ft,2016-02-08 02:00,Not ranked,CHENEY RE NR CHENEY, KS 07144570: Flow=493cfs,Stage=6.38ft,2016-02-08 02:15,Not ranked,ARKANSAS R AT MULVANE, KS 07144490: Flow=6.7cfs,Stage=7.42ft,2016-02-08 02:15,Not ranked,COWSKIN C AT KELLOGG ST, WICHITA, KS 07144486: Flow=0.31cfs,Stage=4.87ft,2016-02-08 03:00,Not ranked,CALFSKIN C AT 119TH ST, WICHITA, KS 07144480: Flow=5.5cfs,Stage=7.43ft,Floodstage=18ft,2016-02-08 02:30,Not ranked,COWSKIN C AT 119TH ST AT WICHITA, KS 07144470: Stage=11.42ft,2016-02-08 02:15,Not ranked,COWSKIN C AT 29TH ST NORTH OF WICHITA, KS 07144301: Flow=0.00cfs,Stage=6.49ft,2016-02-08 02:45,Not ranked,FLOODWAY AT ARKANSAS R AT WICHITA, KS 07144201: Flow=0.00cfs,2016-02-08 02:00,Not ranked,FLOODWAY AT L ARKANSAS R AT VALLEY CENTER, KS 07144100: Flow=100cfs,Stage=3.48ft,Floodstage=22ft,2016-02-08 02:15,Not ranked,L ARKANSAS R NR SEDGWICK, KS 07144050: Flow=17cfs,Stage=-0.46ft,2016-02-08 02:15,Not ranked,EMMA C AT SEDGWICK, KS 07143672: Flow=37cfs,Stage=6.29ft,Floodstage=25ft,2016-02-08 02:30,Not ranked,L ARKANSAS R AT HWY 50 NR HALSTEAD, KS 07143375: Flow=205cfs,Stage=4.87ft,2016-02-08 02:15,Not ranked,ARKANSAS R NR MAIZE, KS 07143310: Stage=1.80ft,Floodstage=9.5ft,2016-02-08 02:15,Not ranked,COW C NR HUTCHINSON, KS 07142680: Flow=76cfs,Stage=8.83ft,2016-02-08 02:00,Not ranked,ARKANSAS R NR NICKERSON, KS 07142020: Flow=3.4cfs,2010-09-29 23:45,Not ranked,WALNUT C BLW CHEYENNE BTMS DV NR GREAT BEND, KS 07142019: Flow=0.07cfs,Stage=1.95ft,2016-02-08 02:00,Not ranked,CHEYENNE BOTTOMS DV NR GREAT BEND, KS 07141900: Flow=0.00cfs,Stage=2.34ft,Floodstage=24ft,2016-02-08 02:45,Not ranked,WALNUT C AT ALBERT, KS 07141780: Stage=6.25ft,2016-02-08 02:15:00,Floodstage=29ft,Not ranked,Ice affected,WALNUT C AT NEKOMA, KS 07141220: Flow=0.00cfs,Stage=2.89ft,2016-02-08 03:00,Not ranked,ARKANSAS R NR LARNED, KS 07141200: Flow=0.00cfs,Stage=5.79ft,Floodstage=31ft,2016-02-08 02:30,Not ranked,PAWNEE R AT ROZEL, KS 07141000: Flow=0.00cfs,Stage=1.84ft,2016-02-08 02:45,Not ranked,BUCKNER C AT HANSTON, KS 07140900: Stage=2.86ft,2016-02-08 02:15:00,Not ranked,Ice affected,BUCKNER C NR JETMORE, KS 07140890: Flow=2.8cfs,Stage=3.10ft,2016-02-08 02:45,Not ranked,BUCKNER C BL HORSETHIEF RE NR JETMORE, KS 07140880: Flow=1.7cfs,Stage=4.08ft,2016-02-08 02:15,Not ranked,BUCKNER C AB HORSETHIEF RE NR JETMORE, KS 07140850: Flow=0.00cfs,Stage=2.21ft,Floodstage=30ft,2016-02-08 02:00,Not ranked,PAWNEE R NR BURDETT, KS 07139500: Stage=6.00ft,Floodstage=11ft,2016-02-08 02:00,Not ranked,ARKANSAS R AT DODGE CITY, KS 07138075: Flow=25cfs,2015-10-12 23:45,Stage=1.44ft,2016-02-08 02:00:00,Not ranked,FARMERS DITCH NR DEERFIELD, KS 07138070: Flow=60cfs,Stage=7.03ft,Floodstage=14ft,2016-02-08 02:45,Not ranked,ARKANSAS R AT DEERFIELD, KS 07138064: Flow=0.00cfs,Stage=1.95ft,2016-02-08 02:15,Not ranked,SOUTHSIDE DITCH RETURN NR DEERFIELD, KS 07138063: Flow=4.0cfs,2015-10-23 23:45,Stage=1.26ft,2016-02-08 02:00:00,Not ranked,SOUTHSIDE DITCH NR LAKIN, KS 07138050: Stage=2.14ft,2016-02-08 02:00:00,Not ranked,Equipment malfunction,AMAZON GREAT EASTERN DITCH NR LAKIN, KS 07138020: Flow=108cfs,Stage=6.00ft,2016-02-08 02:45,Not ranked,ARKANSAS R AT KENDALL, KS 07137010: Flow=0.00cfs,Stage=1.90ft,2016-02-08 02:45,Not ranked,FRONTIER DITCH RETURN NR COOLIDGE, KS 07137000: Flow=0.00cfs,Stage=9.19ft,2016-02-08 02:45,Not ranked,FRONTIER DITCH NR COOLIDGE, KS 07134990: Not ranked,Seasonal site,WILD HORSE CREEK ABOVE HOLLY, CO 06917630: Flow=3.3cfs,Stage=1.78ft,2016-02-08 02:15,Not ranked,East Drywood Creek at Prairie State Park 06917560: Flow=87cfs,Stage=3.15ft,Floodstage=25ft,2016-02-08 02:15,Not ranked,Marmaton River near Richards, MO 06917525: Stage=6.76ft,2016-02-08 02:15,Not ranked,MARMATON R AUX NR FT SCOTT, KS 06917380: Flow=194cfs,2008-11-12 23:45,Not ranked,MARMATON R NR MARMATON, KS 06917240: Flow=19cfs,Stage=0.19ft,2016-02-08 02:00,Not ranked,MARMATON R NR UNIONTOWN, KS 06914995: Stage=915.46ft,2016-02-08 02:30,Not ranked,HILLSDALE LK NR HILLSDALE, KS 06914990: Flow=1.7cfs,Stage=2.82ft,2016-02-08 02:30,Not ranked,L BULL C NR SPRING HILL, KS 06914950: Flow=5.3cfs,Stage=2.21ft,2016-02-08 03:00,Not ranked,BIG BULL C NR EDGERTON, KS 06914500: Flow=113cfs,Stage=6.02ft,2016-02-08 02:30,Not ranked,POTTAWATOMIE C AT LANE, KS 06914100: Flow=98cfs,Stage=3.86ft,Floodstage=23ft,2016-02-08 02:45,Not ranked,POTTAWATOMIE C NR SCIPIO, KS 06912490: Stage=973.08ft,2016-02-08 02:45,Not ranked,POMONA LK NR QUENEMO, KS 06911490: Flow=19cfs,Stage=0.73ft,Floodstage=10ft,2016-02-08 02:45,Not ranked,SALT C AT LYNDON, KS 06910997: Stage=1034.50ft,2016-02-08 02:30,Not ranked,MELVERN LK NR MELVERN, KS 06893578: Flow=119cfs,Stage=5.83ft,Floodstage=33ft,2016-02-08 02:30,Not ranked,Blue River at Stadium Drive in Kansas City, MO 06893562: Stage=4.50ft,2016-02-08 02:45,Not ranked,Brush Creek at Rockhill Road in Kansas City, MO 06893557: Flow=2.8cfs,Stage=35.73ft,Floodstage=47ft,2016-02-08 02:15,Not ranked,Brush Creek at Ward Parkway in Kansas City, MO 06893400: Stage=83.11ft,2016-02-08 02:30,Not ranked,Indian Creek at 103rd St in Kansas City, MO 06893390: Flow=38cfs,Stage=10.32ft,Floodstage=20ft,2016-02-08 02:30,Not ranked,INDIAN C AT STATE LINE RD, LEAWOOD, KS 06893350: Flow=6.9cfs,Stage=1.88ft,2016-02-08 02:15,Not ranked,TOMAHAWK C NR OVERLAND PARK, KS 06893150: Flow=37cfs,Stage=25.04ft,Floodstage=35ft,2016-02-08 03:00,Not ranked,Blue River at Blue Ridge Blvd Ext in KC, MO 06893100: Flow=21cfs,Stage=5.40ft,2016-02-08 02:30,Not ranked,BLUE R AT KENNETH RD, OVERLAND PARK, KS 06892950: Stage=12.26ft,Floodstage=33ft,2016-02-08 02:45,Not ranked,KANSAS R AT KANSAS CITY, KS 06892518: Flow=4800cfs,Stage=11.02ft,2016-02-08 02:45,Not ranked,KANSAS R NR LAKE QUIVIRA, KS 06892513: Flow=20cfs,Stage=48.73ft,2016-02-08 02:30,Not ranked,MILL C AT JOHNSON DRIVE, SHAWNEE, KS 06892495: Flow=21cfs,Stage=57.44ft,2016-02-08 02:45,Not ranked,CEDAR C NR DESOTO, KS 06892494: Stage=3.31ft,2016-02-08 03:00,Not ranked,CAMP C AT 95TH ST NR DESOTO, KS 06892493: Stage=76.89ft,2016-02-08 02:00,Not ranked,CEDAR C AT 95TH ST NR DESOTO, KS 06892360: Flow=13cfs,Stage=5.08ft,2016-02-08 02:30,Not ranked,KILL C AT 95TH ST NR DESOTO, KS 06891850: Flow=52cfs,Stage=2.75ft,2016-02-07 23:45,Not ranked,STRANGER C AT EASTON, KS 06891810: Flow=199cfs,2015-06-09 23:45,Not ranked,STRANGER C NR POTTER, KS 06891478: Stage=875.55ft,2016-02-08 02:00,Not ranked,CLINTON LK NR LAWRENCE, KS 06891260: Flow=73cfs,Stage=4.24ft,2016-02-08 02:30,Not ranked,WAKARUSA R NR RICHLAND, KS 06891200: Stage=3.51ft,Floodstage=15ft,2016-02-08 02:15,Not ranked,WAKARUSA R AT WAKARUSA, KS 06891080: Flow=3920cfs,Stage=-10.24ft,2016-02-06 10:45,Not ranked,KANSAS R AT LAWRENCE, KS 06890898: Stage=890.85ft,2016-02-08 02:30,Not ranked,PERRY LK NR PERRY, KS 06889630: Flow=12cfs,Stage=4.79ft,Floodstage=24ft,2016-02-08 02:15,Not ranked,SHUNGANUNGA C AT TOPEKA, KS 06889585: Stage=5.08ft,Floodstage=15ft,2016-02-08 02:15,Not ranked,SHUNGANUNGA C AT GAGE BLVD, TOPEKA, KS 06888990: Flow=3270cfs,Stage=6.36ft,2016-02-08 02:30,Not ranked,KANSAS R AT TOPEKA WATER PLANT, KS 06888700: Stage=7.38ft,Floodstage=25ft,2016-02-08 02:30,Not ranked,CROSS C AT ROSSVILLE, KS 06887500: Flow=3370cfs,Stage=4.92ft,Floodstage=19ft,2016-02-08 02:30,Not ranked,KANSAS R AT WAMEGO, KS 06886900: Stage=1074.79ft,2016-02-08 02:00,Not ranked,TUTTLE C LK NR MANHATTAN, KS 06884700: Stage=16.88ft,Floodstage=26ft,2016-02-08 02:15,Not ranked,BIG BLUE R AT BLUE RAPIDS, KS 06884025: Stage=2.01ft,2016-02-08 02:00:00,Floodstage=19ft,Not ranked,Ice affected,Little Blue River at Hollenberg, KS 06882000: Stage=4.81ft,2016-02-08 02:00:00,Floodstage=20ft,Not ranked,Ice affected,Big Blue River at Barneston, Nebr. 06879820: Stage=6.19ft,Floodstage=18ft,2016-02-08 02:00,Not ranked,KANSAS R AT MANHATTAN, KS 06879815: Stage=2.58ft,2016-02-08 03:00,Not ranked,WILDCAT C AT SETH CHILDS RD, MANHATTAN, KS 06879810: Flow=16cfs,Stage=2.87ft,2016-02-08 02:15,Not ranked,WILDCAT C AT SCENIC DRIVE, MANHATTAN, KS 06879805: Stage=7.39ft,2016-02-08 02:00,Not ranked,WILDCAT C AT KEATS, KS 06878600: Flow=72cfs,Stage=6.27ft,2016-02-08 02:15,Not ranked,LYON C NR JUNCTION CITY, KS 06876440: Flow=176cfs,Stage=2.91ft,2016-02-08 02:15,Not ranked,SOLOMON R NR MINNEAPOLIS, KS 06876070: Stage=7.89ft,2016-02-08 02:15,Not ranked,SOLOMON R NR SIMPSON, KS 06873000: Stage=1.79ft,2016-02-08 02:15:00,Floodstage=7ft,Not ranked,Ice affected,SF SOLOMON R AB WEBSTER RE, KS 06871500: Stage=4.89ft,2016-02-08 02:45:00,Floodstage=9ft,Not ranked,Ice affected,BOW C NR STOCKTON, KS 06871000: Stage=3.62ft,2016-02-08 02:30:00,Floodstage=11ft,Not ranked,Ice affected,NF SOLOMON R AT GLADE, KS 06870200: Stage=5.15ft,Floodstage=27ft,2016-02-08 02:45,Not ranked,SMOKY HILL R AT NEW CAMBRIA, KS 06869950: Flow=8.9cfs,Stage=2.92ft,Floodstage=24ft,2016-02-08 02:00,Not ranked,MULBERRY C NR SALINA, KS 06868850: Flow=12cfs,Stage=10.50ft,2016-02-08 02:45,Not ranked,SALINE R AT LINCOLN, KS 06868200: Stage=3.35ft,2016-02-08 02:45:00,Not ranked,Temporarily unavailable,SALINE R AT WILSON DAM, KS 06868100: Stage=1505.91ft,2016-02-08 02:30,Not ranked,WILSON LK NR WILSON, KS 06867500: Flow=0.03cfs,Stage=8.58ft,2016-02-08 02:30,Not ranked,PARADISE C NR PARADISE, KS 06865000: Stage=1463.72ft,2016-02-08 02:30,Not ranked,KANOPOLIS LK NR KANOPOLIS, KS 06864050: Flow=58cfs,2011-06-08 23:45,Not ranked,SMOKY HILL R NR BUNKER HILL, KS 06863500: Stage=4.58ft,2016-02-08 02:45:00,Floodstage=26ft,Not ranked,Ice affected,BIG C NR HAYS, KS 06863420: Stage=1.52ft,2016-02-08 02:15:00,Not ranked,Ice affected,BIG C NR ELLIS, KS 06863000: Flow=0.00cfs,Stage=0.35ft,2016-02-08 03:00,Not ranked,SMOKY HILL R AT PFEIFER, KS 06862850: Flow=0.00cfs,Stage=1.90ft,Floodstage=11ft,2016-02-08 02:00,Not ranked,SMOKY HILL R BL SCHOENCHEN, KS 06861500: Stage=2119.36ft,2016-02-08 02:15,Not ranked,CEDAR BLUFF RE NR ELLIS, KS 06861000: Stage=0.85ft,2016-02-08 02:30:00,Floodstage=7ft,Not ranked,Ice affected,SMOKY HILL R NR ARNOLD, KS 06860900: Flow=0.00cfs,Stage=6.98ft,2016-02-08 02:30,Not ranked,HACKBERRY C NR TREGO CENTER, KS 06857050: Stage=1142.93ft,2016-02-08 02:30,Not ranked,MILFORD LK NR JUNCTION CITY, KS 06855850: Flow=20cfs,Stage=4.30ft,2016-02-08 02:15,Not ranked,BUFFALO C 4 MI E OF JAMESTOWN, KS 06854500: Stage=0.94ft,2016-02-08 02:15:00,Not ranked,Ice affected,REPUBLICAN R AT SCANDIA, KS 06854000: Stage=-0.02ft,2016-02-08 02:45,Not ranked,WHITE ROCK C AT LOVEWELL, KS 06853020: Stage=4.29ft,2016-02-08 02:30:00,Not ranked,Ice affected,Republican River at Guide Rock, Nebr. 06852500: 2016-02-08 02:15,Not ranked,Courtland Canal at Nebraska-Kansas Stateline 06847900: Stage=3.88ft,2016-02-08 02:45:00,Floodstage=11ft,Not ranked,Ice affected,PRAIRIE DOG C AB KEITH SEBELIUS LAKE, KS 06846500: Flow=0.00cfs,Stage=2.79ft,Floodstage=16ft,2016-02-08 02:00,Not ranked,BEAVER C AT CEDAR BLUFFS, KS 06845110: Stage=5.02ft,2016-02-08 02:30:00,Floodstage=17ft,Not ranked,Ice affected,SAPPA C NR LYLE, KS 06827000: Stage=3.78ft,2016-02-08 02:45:00,Not ranked,Ice affected,SF REPUBLICAN R NR CO-KS ST LINE, KS 06824000: Stage=1.36ft,2016-02-08 01:45:00,Not ranked,Ice affected,Rock Creek at Parks, Nebr. 06823500: Stage=2.50ft,2016-02-08 01:45:00,Floodstage=11ft,Not ranked,Ice affected,Buffalo Creek near Haigler, Nebr. 06820475: Stage=5.63ft,2016-02-08 02:00,Not ranked,MISSOURI R AT LEAVENWORTH, KS 06815000: Stage=5.46ft,2016-02-08 02:45:00,Floodstage=27ft,Not ranked,Ice affected,Big Nemaha River at Falls City, Nebr. Go to WaterWatch (offsite) for a larger map with additional options
USGS Home Water Resources Biology Geography Geology Geospatial

Accessibility FOIA Privacy Policies and Notices

Take Pride in America logo USA.gov logo U.S. Department of the Interior | U.S. Geological Survey
Page Contact Information: GS-W-KS_info@usgs.gov
Page Last Modified: 2016-01-11 14:35:28 CST